Location: Daytona Beach
(29.2106°N, 81.0231°W)
Time: 23:26:13
(UTC-04:00)

RS-15 - Pass Details

Date: 27 September 2021
Orbit: 1884 x 2160 km, 64.8° (Epoch: 21 October)

Event Time Altitude Azimuth Distance (km) Brightness Sun altitude
Rises 19:19:32 0° 289° (WNW) 5,434 12.0 -2.0°
Reaches altitude 10° 19:28:51 10° 330° (NNW) 4,531 10.4 -4.0°
Maximum altitude 19:30:00 10° 336° (NNW) 4,529 10.3 -4.3°
Drops below altitude 10° 19:31:09 10° 342° (NNW) 4,553 10.2 -4.5°
Sets 19:40:55 0° 23° (NNE) 5,638 10.2 -6.7°
